View from above orbital plane
|
View from above satellite
|
Ground track
|
The orbit data is extracted from the following two-line orbital elements,
1 00046U 60007B 21056.78959505 .00000118 00000-0 45847-4 0 9997
2 00046 66.6893 81.9812 0216756 301.3447 56.6606 14.49370212175823
Epoch (UTC): | 25 February 2021 18:57:01 |
Eccentricity: | 0.0216756 |
inclination: | 66.6893° |
perigee height: | 573 km |
apogee height: | 882 km |
right ascension of ascending node: | 81.9812° |
argument of perigee: | 301.3447° |
revolutions per day: | 14.49370212 |
mean anomaly at epoch: | 56.6606° |
orbit number at epoch: | 17582 |
The dashed part of the orbit path shows where the satellite is in the earth's shadow,
|
|